Wind_Speed
8 15 9 12 15 8 2 4 2 8 12 10 12 17 26 33 40 37 39 39 38 37 37 38 40 32 24 19 12 8 12 12 11 13 26 34 35 33 34 26 21 30 32 32
5 4 4 8 10 6 8 4 6 7 10 8 14 22 26 30 35 39 39 42 42 46 48 47 45 44 43 39 33 30 25 21 30 21 21 19 17 20 25 26 16 16 17 20
5 5 9 4 5 5 3 3 3 3 4 8 11 12 22 27 29 31 35 38 40 40 41 41 40 38 40 38 39 40 39 37 38 32 40 30 20 20 22 20 14 13 15 18
4 7 3 4 2 3 5 7 8 7 6 7 6 4 19 22 23 27 30 34 36 36 36 35 34 33 31 33 35 36 36 36 38 37 37 35 36 35 25 20 18 20 15 11
1 2 7 3 3 4 2 5 2 5 5 6 2 1 8 15 17 20 23 26 28 29 30 30 31 30 30 33 33 35 34 34 33 31 32 32 33 32 29 26 23 18 13 8
0 1 4 3 1 2 2 4 5 4 3 4 3 2 2 10 12 14 17 21 23 24 25 28 29 27 28 32 33 35 32 30 27 27 28 27 26 24 23 20 18 15 13 10
4 5 8 6 4 4 2 4 3 3 0 2 3 2 3 3 8 11 14 16 18 19 23 24 23 22 26 28 30 26 24 23 25 25 24 23 19 19 17 17 14 11 8 5
3 3 7 10 6 7 5 2 6 6 5 6 8 8 4 2 4 6 9 12 14 16 18 19 19 20 21 24 21 19 19 19 20 21 21 19 18 16 15 13 12 11 9 7
8 6 6 18 11 11 8 6 8 11 9 7 7 6 4 2 2 3 6 9 11 14 15 18 20 22 22 22 19 18 16 17 17 17 17 17 16 15 13 13 13 13 13 14
2 4 12 28 30 29 21 15 10 10 11 11 9 8 5 3 1 2 5 8 10 11 13 16 17 17 18 17 17 16 16 17 16 15 15 15 14 14 14 14 15 15 16 17
7 15 26 32 29 25 21 20 18 14 15 13 11 10 8 5 3 3 4 6 8 10 11 13 14 16 18 20 20 22 20 20 21 21 20 19 19 19 18 16 15 13 13 15
7 11 11 17 16 9 11 21 21 19 19 17 15 12 9 7 6 5 5 5 6 8 10 13 14 17 20 22 23 24 24 23 21 20 18 20 19 20 19 16 15 16 14 14
8 6 11 15 16 21 24 21 20 23 21 19 17 15 13 11 9 7 5 4 6 8 10 11 14 16 18 20 22 22 21 19 19 21 21 22 26 26 24 23 24 21 17 13
19 26 27 31 24 22 18 19 21 24 23 20 17 17 15 13 12 10 7 5 5 6 7 9 11 14 16 18 19 20 21 22 22 24 23 24 24 23 21 22 24 25 23 24
17 14 21 24 28 29 26 23 23 25 26 24 22 20 19 17 14 11 8 6 4 4 6 8 10 12 14 16 18 19 21 22 22 21 19 19 19 21 22 21 21 21 22 20
30 27 27 29 31 27 24 28 27 29 30 29 27 25 21 17 16 13 10 8 5 2 4 6 8 10 12 14 16 17 18 17 17 16 17 18 18 18 19 20 21 22 23 24
20 22 21 24 24 25 26 27 30 30 34 33 31 26 24 21 18 15 12 10 6 3 2 3 6 8 11 13 14 14 14 13 13 14 15 17 17 16 16 17 19 20 20 20
16 20 22 24 27 27 26 25 27 31 35 34 32 30 28 25 21 17 14 12 8 5 3 3 5 7 9 11 12 13 12 11 12 12 13 13 10 13 15 18 19 19 20 21
17 21 23 23 21 21 23 24 27 30 33 35 34 34 30 26 21 18 16 13 9 7 6 4 5 7 8 9 10 11 11 11 10 10 10 11 12 14 15 17 19 19 20 22
18 20 20 22 21 19 20 19 20 24 31 34 35 34 31 27 24 21 18 14 11 9 7 6 6 7 7 8 10 9 9 10 10 10 11 13 13 14 15 16 17 17 18 20
20 23 24 24 24 20 16 14 16 20 24 31 35 35 32 29 26 23 21 17 13 11 9 7 6 6 5 7 9 8 9 9 9 10 12 12 12 13 14 15 16 17 18 19
19 22 24 26 25 21 15 13 16 18 21 28 34 35 33 30 26 23 19 15 14 12 10 8 6 4 5 6 6 7 7 7 8 9 10 10 11 12 13 15 16 17 18 19
15 17 21 21 22 20 18 15 14 17 21 28 35 35 34 30 27 25 22 19 16 13 10 8 5 4 5 5 5 6 6 6 6 7 8 8 10 11 13 14 15 16 17 19
12 14 18 20 21 19 19 16 17 18 20 26 32 32 31 29 25 21 19 16 15 12 10 8 6 4 5 4 4 4 3 3 4 5 6 7 9 10 11 12 13 14 15 16
14 15 18 21 25 22 18 16 18 18 20 25 29 28 25 23 22 20 19 17 15 13 10 9 7 6 5 4 4 2 2 2 3 4 5 7 7 8 10 11 13 14 15 16
21 21 19 22 26 26 23 21 21 22 24 27 28 27 26 24 22 19 19 17 15 14 12 10 9 7 6 5 4 3 2 2 3 4 5 6 7 8 9 10 11 12 13 14
26 28 30 27 27 27 26 24 24 25 29 31 31 30 28 27 24 21 20 18 17 15 13 12 10 9 7 6 5 4 3 2 2 2 3 5 6 8 9 10 11 11 12 13
Wind_Direction
251 261 270 263 268 283 256 257 309 298 316 328 335 348 343 347 1 17 20 25 32 44 49 57 72 85 97 99 133 153 222 229 220 207 226 228 235 236 237 232 220 198 196 198
289 272 191 272 266 244 263 250 269 290 301 349 341 359 358 1 3 11 17 19 30 47 54 60 66 67 68 70 72 78 97 96 85 73 127 167 178 195 204 217 217 193 193 189
273 306 307 302 241 205 253 193 218 274 273 330 333 8 5 5 11 12 18 27 35 44 55 59 63 64 64 67 69 69 69 65 73 74 71 87 140 161 176 193 197 197 209 199
285 333 354 243 221 198 243 251 235 259 280 316 310 0 19 24 24 25 33 44 49 49 54 60 61 63 62 62 63 64 63 62 63 66 70 74 75 78 110 153 161 181 177 168
279 234 286 283 213 187 180 284 215 214 296 309 3 103 360 24 40 40 45 48 51 56 59 60 60 60 63 62 60 59 56 54 56 60 64 64 67 71 78 89 93 98 113 162
209 300 246 251 219 162 103 300 176 189 263 273 131 77 322 360 34 44 45 46 48 50 51 53 54 55 57 57 54 51 50 52 53 52 55 58 61 68 71 74 75 84 90 92
215 257 284 239 186 135 31 244 211 224 186 184 146 153 171 36 42 43 41 43 44 44 48 48 46 44 50 50 49 46 44 44 45 47 50 51 48 52 54 61 68 75 71 56
161 209 279 180 130 176 209 232 204 202 196 153 152 163 152 103 75 49 43 41 34 35 42 41 39 36 42 45 41 35 29 30 34 34 35 35 34 35 35 33 26 24 22 16
192 219 227 198 218 215 226 237 231 221 210 195 185 193 182 159 92 53 46 41 32 26 30 35 33 32 36 38 33 30 27 29 28 25 24 22 20 18 14 12 5 357 347 337
352 268 240 253 252 251 251 246 250 237 217 205 209 206 204 192 200 23 31 20 17 15 23 29 29 31 40 40 39 39 43 46 45 44 43 40 33 26 18 11 5 356 345 337
266 284 279 273 265 258 256 250 238 223 220 218 212 215 220 213 242 300 332 346 354 3 17 28 31 37 41 42 39 40 43 46 46 45 46 44 43 41 40 34 24 9 355 345
225 258 258 284 312 339 281 248 234 222 214 214 218 217 218 223 239 262 282 307 338 5 20 28 29 30 31 29 27 27 31 34 36 39 38 33 32 27 31 39 27 16 6 358
253 278 273 276 287 296 298 285 254 236 227 221 214 218 223 226 238 242 254 300 340 1 12 21 24 23 26 24 21 21 23 29 30 27 23 18 13 14 11 6 8 16 23 16
283 271 278 274 278 295 293 293 268 244 237 228 224 222 220 222 229 238 252 288 325 355 12 21 19 17 20 16 11 10 14 13 13 11 8 1 0 357 352 353 353 357 3 1
298 288 276 287 280 272 274 277 268 238 233 229 226 225 222 224 226 227 241 262 293 337 357 6 5 6 8 6 2 2 2 2 360 356 354 354 356 358 356 352 350 348 347 350
305 299 290 283 279 277 273 257 255 242 231 229 230 228 228 227 225 225 232 245 249 284 337 350 350 357 359 356 356 356 358 354 353 1 4 4 359 354 355 355 354 354 355 352
306 311 314 307 301 299 285 267 248 244 236 229 228 228 227 228 227 226 227 232 230 244 300 341 344 350 349 350 348 349 349 349 357 1 1 357 352 352 346 347 347 347 348 348
310 311 309 305 298 292 285 273 254 244 239 234 230 225 222 227 233 233 231 230 224 237 271 304 325 334 335 334 336 332 332 347 354 353 346 342 333 337 342 345 347 345 346 348
326 324 322 320 315 298 282 271 256 251 241 235 228 225 227 226 223 227 230 226 226 236 248 264 291 307 320 325 331 333 339 342 336 329 328 331 335 336 341 346 350 350 349 349
343 338 330 326 323 312 295 272 250 257 246 236 226 222 222 220 221 222 221 222 227 239 243 255 282 302 315 327 332 334 330 324 320 321 328 338 337 341 346 348 349 350 352 353
357 360 353 338 327 319 301 273 254 255 249 236 226 223 221 220 221 219 215 217 222 225 232 250 271 286 312 325 324 326 323 319 313 320 330 337 340 340 346 349 350 352 354 354
343 345 344 340 331 319 298 277 260 253 248 232 220 220 219 215 216 216 216 223 221 218 225 239 253 281 314 317 318 321 318 314 315 322 329 337 339 344 353 354 354 356 356 357
327 331 331 328 324 319 300 279 270 258 249 232 221 215 216 219 217 214 216 215 212 212 220 229 243 271 296 301 306 304 303 310 317 326 336 346 345 350 357 358 0 359 359 1
323 331 330 327 320 306 297 290 279 266 249 233 223 218 217 213 211 209 213 212 209 213 217 222 227 242 261 268 278 284 300 318 341 350 354 358 356 357 0 3 7 5 4 6
296 309 322 327 324 312 293 285 275 262 243 226 218 215 215 215 223 221 214 208 209 211 212 215 222 229 234 242 253 268 297 328 351 355 3 2 350 349 351 356 358 355 0 1
280 288 294 311 309 305 295 279 272 258 234 218 212 211 211 208 207 208 207 208 210 209 211 213 217 220 226 234 243 253 276 309 331 346 349 347 346 348 354 358 357 354 354 356
277 287 282 288 292 293 289 275 267 255 235 222 217 211 208 208 207 204 204 208 208 208 210 211 215 220 223 232 241 249 261 281 303 329 342 347 346 349 357 359 358 360 1 1
Height
1513 1506 1505 1500 1493 1490 1493 1488 1485 1476 1468 1463 1460 1455 1442 1432 1416 1408 1399 1391 1385 1380 1378 1372 1368 1369 1371 1370 1371 1370 1370 1374 1376 1376 1374 1373 1377 1381 1384 1388 1391 1395 1399 1407
1509 1497 1498 1494 1487 1487 1484 1483 1481 1477 1470 1466 1461 1458 1449 1440 1429 1417 1413 1402 1396 1388 1384 1381 1380 1378 1376 1375 1374 1372 1373 1374 1371 1371 1365 1365 1370 1376 1382 1386 1391 1394 1399 1406
1512 1500 1497 1493 1480 1481 1477 1479 1478 1478 1468 1466 1462 1460 1456 1449 1440 1433 1425 1419 1409 1404 1399 1395 1392 1390 1387 1385 1383 1379 1378 1375 1374 1375 1369 1369 1371 1375 1382 1388 1394 1398 1402 1406
1513 1506 1500 1476 1473 1474 1474 1473 1471 1470 1468 1466 1465 1463 1462 1457 1451 1444 1438 1431 1425 1419 1414 1409 1406 1403 1401 1396 1393 1390 1386 1384 1381 1380 1378 1379 1377 1380 1382 1388 1393 1398 1402 1408
1519 1528 1494 1471 1474 1474 1473 1470 1465 1466 1465 1464 1464 1462 1462 1461 1457 1452 1447 1442 1437 1432 1428 1423 1417 1415 1410 1406 1403 1399 1397 1396 1394 1391 1388 1388 1388 1388 1389 1393 1397 1402 1406 1410
1519 1519 1503 1470 1471 1471 1471 1473 1464 1466 1465 1463 1463 1463 1463 1461 1459 1456 1451 1448 1443 1439 1435 1429 1426 1423 1418 1415 1411 1408 1408 1406 1403 1401 1399 1398 1400 1399 1400 1403 1405 1407 1411 1413
1517 1512 1491 1471 1470 1472 1475 1473 1463 1463 1463 1462 1463 1463 1463 1462 1459 1457 1454 1451 1449 1444 1440 1436 1433 1430 1424 1421 1417 1418 1416 1413 1411 1409 1407 1407 1407 1406 1406 1405 1407 1409 1411 1413
1509 1510 1501 1464 1470 1473 1463 1460 1461 1461 1462 1462 1462 1463 1462 1462 1461 1459 1457 1454 1451 1448 1444 1440 1437 1434 1429 1425 1424 1422 1420 1418 1416 1413 1412 1412 1411 1411 1410 1409 1410 1411 1412 1415
1490 1475 1456 1456 1453 1453 1454 1456 1457 1458 1459 1460 1461 1462 1462 1462 1461 1460 1458 1455 1453 1450 1446 1443 1439 1435 1431 1429 1427 1424 1422 1419 1417 1415 1414 1412 1411 1411 1412 1412 1412 1412 1413 1415
1478 1453 1453 1452 1451 1450 1450 1451 1453 1455 1456 1457 1458 1460 1461 1461 1461 1460 1458 1456 1454 1451 1448 1445 1442 1439 1436 1433 1431 1428 1424 1421 1420 1419 1418 1416 1416 1415 1414 1414 1414 1414 1414 1415
1474 1455 1450 1446 1445 1444 1444 1445 1447 1449 1451 1452 1454 1456 1457 1458 1459 1459 1458 1456 1455 1452 1449 1446 1443 1440 1437 1435 1432 1427 1425 1424 1422 1421 1420 1421 1420 1419 1418 1419 1418 1419 1418 1417
1462 1451 1450 1444 1443 1441 1440 1441 1442 1443 1445 1447 1449 1451 1453 1454 1455 1456 1456 1455 1454 1451 1448 1445 1442 1439 1436 1433 1431 1428 1425 1424 1424 1424 1424 1421 1421 1419 1419 1421 1420 1420 1419 1416
1449 1448 1446 1445 1443 1442 1441 1440 1440 1440 1441 1442 1443 1446 1448 1449 1450 1451 1451 1451 1450 1448 1446 1444 1441 1438 1436 1434 1432 1430 1429 1428 1426 1424 1422 1420 1418 1415 1417 1417 1416 1418 1416 1415
1448 1448 1445 1443 1440 1441 1438 1436 1436 1438 1439 1439 1440 1441 1442 1444 1446 1447 1447 1447 1446 1445 1444 1442 1441 1439 1436 1435 1434 1432 1429 1426 1424 1423 1421 1419 1418 1419 1419 1418 1414 1411 1411 1408
1442 1440 1439 1438 1436 1434 1434 1434 1432 1432 1435 1437 1438 1438 1438 1439 1440 1441 1442 1443 1443 1442 1442 1440 1439 1437 1436 1434 1432 1429 1427 1425 1424 1423 1422 1422 1421 1419 1417 1415 1412 1410 1407 1407
1434 1433 1432 1431 1428 1428 1427 1427 1426 1427 1429 1432 1434 1435 1437 1437 1437 1437 1438 1438 1439 1438 1437 1437 1436 1435 1434 1433 1431 1429 1427 1426 1426 1425 1424 1423 1422 1420 1418 1417 1415 1413 1410 1407
1428 1423 1422 1421 1421 1420 1420 1419 1419 1420 1423 1425 1426 1431 1433 1434 1434 1434 1435 1435 1436 1435 1435 1434 1434 1433 1432 1431 1430 1429 1428 1427 1426 1426 1425 1424 1423 1422 1421 1418 1415 1413 1411 1408
1426 1421 1419 1416 1411 1410 1409 1411 1413 1414 1415 1419 1423 1424 1425 1428 1430 1432 1433 1433 1432 1432 1432 1432 1431 1431 1430 1430 1429 1428 1427 1426 1426 1426 1426 1426 1425 1422 1419 1416 1414 1411 1408 1405
1419 1415 1412 1409 1406 1402 1401 1401 1404 1406 1409 1413 1416 1419 1421 1423 1425 1427 1429 1429 1429 1429 1430 1430 1430 1429 1428 1427 1427 1426 1426 1426 1427 1427 1426 1424 1422 1420 1416 1414 1411 1409 1405 1402
1413 1409 1406 1403 1400 1396 1393 1394 1396 1399 1401 1405 1410 1412 1416 1420 1420 1421 1423 1425 1427 1427 1427 1427 1427 1426 1426 1425 1425 1424 1425 1426 1425 1425 1424 1421 1420 1417 1414 1412 1410 1408 1404 1401
1408 1405 1402 1398 1395 1392 1390 1390 1391 1393 1396 1398 1403 1407 1410 1413 1417 1419 1420 1421 1422 1424 1424 1424 1425 1425 1424 1423 1423 1422 1423 1424 1423 1422 1420 1419 1418 1416 1413 1411 1408 1405 1402 1398
1404 1401 1399 1396 1392 1389 1387 1387 1386 1388 1390 1393 1395 1401 1406 1408 1411 1415 1417 1419 1419 1419 1421 1422 1423 1422 1422 1421 1421 1421 1422 1421 1421 1420 1418 1417 1416 1414 1411 1409 1406 1403 1400 1397
1399 1396 1395 1392 1389 1384 1384 1383 1382 1382 1385 1387 1390 1393 1399 1403 1405 1408 1411 1413 1414 1416 1418 1419 1419 1420 1420 1420 1420 1421 1421 1420 1419 1418 1417 1415 1414 1412 1409 1407 1404 1401 1398 1395
1393 1392 1390 1388 1385 1381 1380 1380 1378 1377 1378 1382 1386 1389 1392 1398 1402 1404 1407 1409 1411 1412 1414 1415 1416 1418 1419 1420 1420 1421 1420 1418 1417 1416 1415 1413 1412 1410 1408 1406 1403 1401 1398 1395
1389 1387 1386 1384 1381 1378 1376 1375 1373 1373 1373 1376 1380 1384 1389 1393 1398 1400 1402 1404 1407 1409 1411 1412 1414 1416 1417 1419 1419 1418 1417 1416 1415 1415 1413 1412 1411 1410 1407 1404 1401 1400 1397 1393
1381 1380 1380 1378 1377 1373 1371 1370 1369 1369 1368 1370 1375 1378 1383 1386 1390 1394 1398 1401 1404 1406 1408 1410 1412 1414 1415 1416 1416 1415 1414 1414 1413 1412 1411 1410 1409 1408 1405 1402 1400 1399 1396 1393
1372 1371 1371 1370 1369 1366 1364 1364 1363 1363 1365 1365 1369 1372 1375 1380 1383 1388 1393 1397 1401 1403 1406 1408 1409 1411 1412 1413 1413 1412 1412 1411 1411 1410 1409 1408 1408 1407 1403 1401 1400 1398 1395 1392